COSMOS 1275 DEB, 12751

Orbit data source: Space-Track

COSMOS 1275 DEB, 12751 is space debris in LEO originally from a launch on Thu, 04 Jun 1981 UTC launched from the Plesetsk Missile And Space Complex (PKMTR). Debris objects in space refer to the collection of defunct objects orbiting the Earth. Examples of debris include non-operational satellites, rocket bodies, and fragments generated from explosions, collisions, or faulty payload assembly.

Loading next visibility...
Identifier
12751, 1981-053CU
Orbit
LEO
Country
Flag of CISCIS
Related business
Manufacturer
Unknown
Mission
Spacecraft
Bus & Motor
Unknown
Mass
Unknown
Launch date (UTC)
1981-06-04 (45 years ago)
Launch vehicle
Unknown
Launch site
Plesetsk Missile And Space Complex (PKMTR)
Object type
Payload
Rocket body
Debris
Shape & HBR
Unknown shape, 0.3 m
Radar Cross Section
Medium (>0.1 m² and <1 m²)

Expand to show TLE details & history
Last TLE update: 2 days ago

TLE from 2 days ago
0 COSMOS 1275 DEB
1 12751U 81053CU  26171.40678296  .00000219  00000-0  19182-3 0  9998
2 12751  82.9421 174.5014 0026222 291.2053 189.5521 13.81399410256533
Epoch: 2026-06-20T09:45Z
TLE epoch observation values (Epoch: 2026-06-20T09:45:46.047Z)
Latitude
58.66375°
Longitude
-72.23308°
Altitude
987.824 km
Speed
7.354 km/s
True Right ascension
22h 51m 19s
True Declination
58° 30' 56"
Sunlit
Object was in daylight at epoch
Visualization orbit readout
Latitude
Unknown
Longitude
Unknown
Altitude
Unknown
Speed
Unknown
Apparent Right ascension
Unknown
Apparent Declination
Unknown
Sunlit
N/A
Visualization observer readout
Local Sidereal Time
22:36:36
Azimuth
Unknown
Elevation
Unknown
Doppler factor
Unknown
Orbital elements
Apogee altitude
975.299 km
Perigee altitude
936.836 km
Semi-major axis
7,334.204 km
Eccentricity
0.00262
Inclination
82.9421°
RAAN
174.5014°
Arg. of periapsis
291.2053°
True anomaly
189.5024°
Mean anomaly
189.5521°
Eccentric anomaly
189.52723°
Mean motion
3.45552 °/min
Orbital period
104.18 mins
BSTAR
0.00019182
Loading maneuver chart data...
Computing Atmospheric mass density...

Documentation

Showing up to 5 results
|